[TLELIST] Archives

 

[TLELIST] Current TLEs

February 3rd 2023 PST

HST 1 20580U 90037B 23034.32907685 .00003823 00000-0 20750-3 0 9999 2 20580 28.4709 77.7923 0002273 21.3081 69.7440 15.11824289601436 ISS (ZARYA) 1 25544U 98067A 23034.21948524 .00011361 00000-0 20404-3 0 9992 2 25544 51.6420 272.0853 0004811 309.2927 189.4695 15.50372651381013 CXO 1 25867U 99040B 23035.75817493 .00000688 00000-0 00000+0 0 9998 2 25867 39.4688 212.9861 9010551 249.5332 1.5061 0.37810143 23832 ...Continue Reading

[TLELIST] Current TLEs

February 2nd 2023 PST

HST 1 20580U 90037B 23032.55676240 .00003679 00000-0 19940-3 0 9990 2 20580 28.4707 89.5581 0002194 2.6248 143.3685 15.11810874600900 ISS (ZARYA) 1 25544U 98067A 23033.18918240 .00011442 00000-0 20561-3 0 9993 2 25544 51.6430 277.1923 0004788 304.2965 200.2412 15.50348828380857 CXO 1 25867U 99040B 23035.75817493 .00000688 00000-0 00000+0 0 9998 2 25867 39.4688 212.9861 9010551 249.5332 1.5061 0.37810143 23832 ...Continue Reading

[TLELIST] Current TLEs

February 2nd 2023 PST

HST 1 20580U 90037B 23032.55676240 .00003679 00000-0 19940-3 0 9990 2 20580 28.4707 89.5581 0002194 2.6248 143.3685 15.11810874600900 ISS (ZARYA) 1 25544U 98067A 23033.18918240 .00011442 00000-0 20561-3 0 9993 2 25544 51.6430 277.1923 0004788 304.2965 200.2412 15.50348828380857 CXO 1 25867U 99040B 23035.75817493 .00000688 00000-0 00000+0 0 9998 2 25867 39.4688 212.9861 9010551 249.5332 1.5061 0.37810143 23832 ...Continue Reading

[TLELIST] Current TLEs

February 1st 2023 PST

HST 1 20580U 90037B 23031.90043824 .00003775 00000-0 20487-3 0 9999 2 20580 28.4706 93.9153 0002183 355.3503 171.4963 15.11806414600808 ISS (ZARYA) 1 25544U 98067A 23032.45151620 .00012068 00000-0 21651-3 0 9999 2 25544 51.6441 280.8493 0004886 302.2562 42.4891 15.50334342380732 CXO 1 25867U 99040B 23033.10438886 .00000541 00000-0 00000-0 0 9999 2 25867 39.5142 213.2774 9009456 249.2977 0.2726 0.37807140 12676 ...Continue Reading

[TLELIST] Current TLEs

January 31st 2023 PST

HST 1 20580U 90037B 23031.28385771 .00003622 00000-0 19620-3 0 9998 2 20580 28.4704 98.0084 0002128 348.0765 56.3682 15.11801668600976 ISS (ZARYA) 1 25544U 98067A 23031.38669409 .00012020 00000-0 21588-3 0 9996 2 25544 51.6437 286.1280 0004820 296.1718 221.7141 15.50308313380573 CXO 1 25867U 99040B 23027.81602097 .00000364 00000-0 00000-0 0 9990 2 25867 39.6277 213.9236 9004916 248.7716 0.4247 0.37808966 12652 ...Continue Reading

[TLELIST] Current TLEs

January 30th 2023 PST

HST 1 20580U 90037B 23029.91954961 .00003760 00000-0 20410-3 0 9990 2 20580 28.4702 107.0657 0002088 332.3183 192.1732 15.11792117600777 ISS (ZARYA) 1 25544U 98067A 23030.22282150 .00015523 00000-0 27656-3 0 9995 2 25544 51.6435 291.8965 0004577 289.8386 208.1328 15.50288450380398 CXO 1 25867U 99040B 23027.81602097 .00000364 00000-0 00000-0 0 9990 2 25867 39.6277 213.9236 9004916 248.7716 0.4247 0.37808966 12652 ...Continue Reading

[TLELIST] Current TLEs

January 29th 2023 PST

HST 1 20580U 90037B 23028.92940267 .00004159 00000-0 22692-3 0 9991 2 20580 28.4700 113.6388 0002024 320.2158 204.7564 15.11785003600350 ISS (ZARYA) 1 25544U 98067A 23029.25691775 .00016663 00000-0 29651-3 0 9996 2 25544 51.6435 296.6849 0004645 287.7555 215.9706 15.50262187380242 CXO 1 25867U 99040B 23027.81602097 .00000364 00000-0 00000-0 0 9990 2 25867 39.6277 213.9236 9004916 248.7716 0.4247 0.37808966 12652 ...Continue Reading

[TLELIST] Current TLEs

January 28th 2023 PST

HST 1 20580U 90037B 23027.32314157 .00004863 00000-0 26724-3 0 9999 2 20580 28.4699 124.3027 0001981 301.3296 104.3567 15.11770724600116 ISS (ZARYA) 1 25544U 98067A 23028.29036675 .00021068 00000-0 37286-3 0 9999 2 25544 51.6440 301.4720 0004927 282.5467 223.4305 15.50241974380092 CXO 1 25867U 99040B 23027.81602097 .00000364 00000-0 00000-0 0 9990 2 25867 39.6277 213.9236 9004916 248.7716 0.4247 0.37808966 12652 ...Continue Reading

[TLELIST] Current TLEs

January 26th 2023 PST

HST 1 20580U 90037B 23026.02582266 .00005966 00000-0 33032-3 0 9998 2 20580 28.4698 132.9151 0001962 285.1033 246.0904 15.11758796600186 ISS (ZARYA) 1 25544U 98067A 23026.28446747 .00024396 00000-0 43148-3 0 9992 2 25544 51.6457 311.4103 0004792 281.1564 183.0794 15.50165374379785 CXO 1 25867U 99040B 23027.81602097 .00000364 00000-0 00000-0 0 9990 2 25867 39.6277 213.9236 9004916 248.7716 0.4247 0.37808966 12652 ...Continue Reading

[TLELIST] Current TLEs

January 23rd 2023 PST

HST 1 20580U 90037B 23022.43932640 .00005834 00000-0 32315-3 0 9991 2 20580 28.4689 156.7224 0002021 238.9744 174.8123 15.11718379599634 ISS (ZARYA) 1 25544U 98067A 23023.32449093 .00023011 00000-0 40968-3 0 9991 2 25544 51.6448 326.0766 0004765 269.3576 226.3106 15.50014863379327 CXO 1 25867U 99040B 23025.17278913 .00000472 00000-0 00000+0 0 9992 2 25867 39.6795 214.2086 8999857 248.5469 0.5771 0.37809816 23798 ...Continue Reading
  • This mailing list is a public mailing list - anyone may join or leave, at any time.
  • This mailing list is announce-only.

International Space Station (ISS) / Hubble Space Telescope (HST) / Chandra X-Ray Observatory Orbital Data via EMAIL

Privacy Policy:

Private list